Regional Weather Roundup
Issued by NWS

Home | Current Version | Previous Version | Text Only | Print | Product List | Glossary On
Versions: 1 2 3 4 5 6 7 8 9 10 11 12 13 14 15 16 17 18 19 20 21 22 23 24 25 26 27 28 29 30 31 32 33 34 35 36 37 38 39 40 41 42 43 44 45 46 47 48 49 50
000
ASUS42 KFFC 261910
RWRGA
WEATHER ROUNDUP FOR GEORGIA
NATIONAL WEATHER SERVICE PEACHTREE CITY GA
300 PM EDT SUN MAR 26 2017

NOTE: "FAIR" INDICATES FEW OR NO CLOUDS BELOW 12,000 FEET WITH NO
SIGNIFICANT WEATHER AND/OR OBSTRUCTIONS TO VISIBILITY.

* = USE WITH CAUTION. THE STATIONS MARKED WITH AN ASTERISK MAY NOT
REPORT WEATHER SUCH AS PRECIPITATION, FOG, OR THUNDER AND ARE NOT
QUALITY CONTROLLED BY NWS.

THE REMARK "TC" DENOTES TEMPERATURE READING IN DEGREES CELSIUS.

GAZ001>058-262000-
NORTH GEORGIA

CITY           SKY/WX    TMP DP  RH WIND       PRES   REMARKS
ATLANTA        PTSUNNY   77  56  48 SW14G21   30.08F
ATHENS         MOSUNNY   76  57  51 VRB5      30.09F
CHAMBLEE       MOSUNNY   77  57  50 SW14G25   30.08F
PEACHTREE CITY MOSUNNY   77  56  48 S8        30.09F
ROME           MOSUNNY   75  57  53 S15       30.04F
WEST ATLANTA   PTSUNNY   75  53  46 SW15G21   30.07F
GAINESVILLE    PTSUNNY   74  54  49 SW12G21   30.11F
CARTERSVILLE   PTSUNNY   74  56  53 VRB6      30.07F


CITY           SKY/WX    TMP DP  RH WIND       PRES   REMARKS
DALTON*        PTSUNNY   73  57  56 S10       30.05F
LAWRENCEVILLE* PTSUNNY   75  55  50 SW9G17    30.10F
MARIETTA       PTSUNNY   76  55  48 S9        30.07F
KENNESAW*      MOSUNNY   72  57  60 MISG      30.06F
CANTON*        MOSUNNY   73  46  38 S15       30.09F
$$

GAZ059>098-102>109-262000-
CENTRAL GEORGIA

CITY           SKY/WX    TMP DP  RH WIND       PRES   REMARKS
AUGUSTA-BUSH   PTSUNNY   79  57  46 S10       30.11F
AUGUSTA-DANIEL PTSUNNY   78  54  43 SE12G20   30.12F
COLUMBUS       MOSUNNY   79  58  48 W6G17     30.07F
MACON          MOSUNNY   79  56  45 S8G20     30.09F
ROBINS AFB     MOSUNNY   81  57  43 W12       30.08F


CITY           SKY/WX    TMP DP  RH WIND       PRES   REMARKS
LAGRANGE*      PTSUNNY   78  64  60 SW12G17   30.08F
SYLVANIA*      CLOUDY   N/A N/A N/A S8        30.15S
MILLEDGEVILLE* MOSUNNY   81  61  50 CALM      30.09F
$$

GAZ099>101-110>166-262000-
SOUTH GEORGIA

CITY           SKY/WX    TMP DP  RH WIND       PRES   REMARKS
SAVANNAH       MOSUNNY   81  56  42 S14       30.14F
VALDOSTA       LGT RAIN  77  58  51 S8        30.11F
ALMA           CLOUDY    78  57  48 SE8       30.11F
ST SIMONS      SUNNY     74  62  66 SE16      30.15F
FT STEWART     PTSUNNY   78  59  52 SE10      30.11F
ALBANY         PTSUNNY   83  56  39 SW9       30.10F
HUNTER AFB     MOSUNNY   77  61  57 SE14      30.12F
MOODY AFB      LGT RAIN  81  57  44 SW6       30.09F
BRUNSWICK      SUNNY     77  63  61 SE9G16    30.15F


CITY           SKY/WX    TMP DP  RH WIND       PRES   REMARKS
BAINBRIDGE*    MOSUNNY   82  55  39 S8        30.08F
MOULTRIE*      MOSUNNY   81  57  44 S5G16     30.10F
VIDALIA*       CLOUDY    79  55  44 S6        30.12F
WAYCROSS*      CLOUDY    82  59  45 SW7       30.12S
DOUGLAS*       PTSUNNY   81  54  39 S5        30.13F
$$




USA.gov is the U.S. government's official web portal to all federal, state and local government web resources and services.